Regional Weather Roundup
Issued by NWS

Home | Current Version | Previous Version | Text Only | Print | Product List | Glossary Off
Versions: 1 2 3 4 5 6 7 8 9 10 11 12 13 14 15 16 17 18 19 20 21 22 23 24 25 26 27 28 29 30 31 32 33 34 35 36 37 38 39 40 41 42 43 44 45 46 47 48 49 50

000
ASUS43 KBIS 191802
RWRND

NORTH DAKOTA REGIONAL WEATHER ROUNDUP
NATIONAL WEATHER SERVICE BISMARCK ND
1200 PM CST THU JAN 19 2017

NOTE: "FAIR" INDICATES FEW OR NO CLOUDS BELOW 12,000 FEET WITH NO
SIGNIFICANT WEATHER AND/OR OBSTRUCTIONS TO VISIBILITY.


NDZ001>003-009>011-017-191900-
NORTHWEST NORTH DAKOTA

CITY           SKY/WX    TMP DP  RH WIND       PRES   REMARKS
WILLISTON      FAIR      29  19  66 CALM      29.49F
6HR MIN TEMP:  13; 6HR MAX TEMP:  29;

MINOT          FAIR      38  28  67 S10       29.45F
MINOT AFB      CLOUDY    32  27  81 W7        29.45F
$$

NDZ018>021-031>035-040>046-191900-
SOUTHWEST NORTH DAKOTA

CITY           SKY/WX    TMP DP  RH WIND       PRES   REMARKS
BISMARCK       FAIR      20  14  77 SE6       29.54S WCI  12
6HR MIN TEMP:   8; 6HR MAX TEMP:  24;

DICKINSON      FAIR      30  21  69 W3        29.46F
GARRISON         N/A     20  16  84 CALM      29.49S
6HR MIN TEMP:  12; 6HR MAX TEMP:  23;

HETTINGER ARPT CLOUDY    26  18  71 W6        29.50F WCI  19
$$

NDZ004>008-012>016-024-026-027-054-191900-
NORTHEAST NORTH DAKOTA

CITY           SKY/WX    TMP DP  RH WIND       PRES   REMARKS
GRAND FORKS    CLOUDY    26  22  84 S21       29.56F FOG     WCI  12
GRND FRKS AFB  CLOUDY    25  23  93 S12       29.56F WCI  14
DEVILS LAKE    FAIR      31  23  72 S5        29.50F
$$

NDZ022-023-025-028>030-036>039-047>053-191900-
SOUTHEAST NORTH DAKOTA

CITY           SKY/WX    TMP DP  RH WIND       PRES   REMARKS
FARGO          CLOUDY    36  32  85 S12       29.60F
6HR MIN TEMP:  25; 6HR MAX TEMP:  36;

JAMESTOWN      FAIR      23  19  85 S5        29.54F WCI  17
$$





USA.gov is the U.S. government's official web portal to all federal, state and local government web resources and services.